[[{"header":{"parameterUnit":"m.s-1","parameterCategory":1,"la1":30.2991,"la2":30.254,"lo1":-89.0895,"lo2":-89.0444,"dy":0.0017,"dx":0.0017,"nx":28,"ny":28,"refTime":"2025-01-18T09:00:00:Z","depth":0,"parameterNumber":2,"parameterNumberName":"U-component_of_WINDS"},"data":[0,0,0,0,0,0,0,0,0,0,0,0,0,0,0,0,0,0,0,0,0,0,0,0,0,0,0,0,0,0,0,0,0,0,0,0,0,0,0,0,0,0,0,0,0,0,0,0,0,0,0,0,0,0,0,0,0,0,1.9005,1.9006,0,1.9051,1.9051,1.9052,1.9077,1.9077,1.9077,1.9077,1.9123,1.9124,1.9126,0,0,0,0,0,0,0,0,0,0,0,0,0,1.8942,1.8943,1.9005,1.9006,1.9007,1.9051,1.9051,1.9052,1.9077,1.9077,1.9077,1.9077,1.9123,1.9124,1.9126,0,0,0,0,0,0,0,0,0,0,0,0,0,1.8977,1.8943,1.9005,1.9024,1.9026,1.9051,1.9051,1.9052,1.9077,1.9077,1.9077,1.9077,1.9122,1.9124,1.9126,1.9135,0,0,1.9131,1.9132,0,0,0,0,0,0,0,0,1.8975,1.8979,1.9021,1.9023,1.9026,1.9058,1.9046,1.908,1.9077,1.9058,1.9077,1.9077,1.9102,1.9105,1.9113,1.9137,1.9139,1.9131,1.9132,1.9133,1.9134,0,0,0,0,0,0,0,1.8972,1.8977,1.9023,1.9022,1.9024,1.9031,1.9036,1.9053,1.9078,1.9059,1.9061,1.9066,1.9103,1.9112,1.9115,1.9139,1.9131,1.9133,1.9134,1.9135,1.9176,1.9176,0,0,0,0,0,0,1.8967,1.8975,1.9022,1.9025,1.9,1.9032,1.9038,1.9048,1.9078,1.9083,1.9066,1.9067,1.9108,1.9112,1.9116,1.9131,1.9133,1.9135,1.9136,1.9176,1.9176,1.9176,0,0,0,0,0,0,1.8965,1.8971,1.902,1.9001,1.9007,1.9033,1.9044,1.9049,1.9057,1.9084,1.9088,1.907,1.9109,1.9114,1.9131,1.9133,1.9136,1.9137,1.9176,1.9176,1.9176,1.9158,0,0,0,0,0,0,1.8963,1.897,1.8973,1.9,1.9008,1.9033,1.9044,1.9049,1.906,1.9062,1.9089,1.9093,1.9109,1.9128,1.9132,1.9135,1.9138,1.9175,1.9176,1.9176,1.9159,1.9157,1.9157,0,0,0,0,0,1.8961,1.8965,1.8973,1.8978,1.9012,1.9033,1.9038,1.9056,1.906,1.9064,1.9082,1.9092,1.9132,1.9129,1.9135,1.9138,1.9175,1.9176,1.9176,1.9159,1.9158,1.9157,0,0,0,0,0,0,1.8937,1.8969,1.8978,1.8991,1.9009,1.9037,1.9042,1.9054,1.9071,1.9072,1.9094,1.91,1.9115,1.9128,1.9125,1.915,1.9155,1.9156,1.914,1.9139,1.9138,1.9135,1.914,0,0,0,0,0,1.8933,1.8947,1.8974,1.8984,1.8992,1.9016,1.9025,1.9038,1.9058,1.9066,1.9084,1.9103,1.912,1.913,1.9147,1.9161,1.9168,1.9166,1.9165,1.9164,1.9165,1.9176,1.9176,1.9176,1.9176,1.9176,0,0,1.8925,1.8945,1.8952,1.8979,1.8995,1.901,1.9022,1.9036,1.9048,1.9068,1.9085,1.91,1.9122,1.9138,1.9146,1.915,1.9166,1.9164,1.9163,1.9164,1.9176,1.9176,1.9176,1.9176,1.9176,1.9176,0,0,1.8919,1.8934,1.8945,1.8961,1.8985,1.9001,1.9003,1.903,1.9041,1.9059,1.9075,1.9089,1.9117,1.9133,1.9145,1.9148,1.916,1.9153,1.9148,1.9158,1.9158,1.9158,1.9161,1.9162,1.9154,1.9154,1.9154,0,1.8906,1.8929,1.8949,1.8963,1.8976,1.8995,1.9007,1.9022,1.9049,1.9058,1.9062,1.9099,1.9115,1.9137,1.9138,1.9146,1.9151,1.915,1.9157,1.9157,1.9157,1.9161,1.9161,1.9153,1.9153,1.9153,1.9153,0,1.8913,1.8928,1.8934,1.8962,1.8975,1.8988,1.9011,1.9022,1.9035,1.9051,1.907,1.9091,1.9114,1.912,1.9131,1.9144,1.9145,1.9152,1.9158,1.9156,1.916,1.9161,1.9152,1.9152,1.9152,1.9152,0,0,1.8891,1.8932,1.8934,1.8948,1.8976,1.8989,1.9004,1.9027,1.9037,1.9056,1.907,1.9094,1.9102,1.9116,1.913,1.9139,1.9143,1.9145,1.9146,1.9145,1.916,1.9155,1.9156,1.9151,1.9151,1.9151,1.9159,0,1.889,1.8917,1.8937,1.8957,1.8973,1.8993,1.9007,1.9026,1.9042,1.9059,1.9077,1.9094,1.9102,1.9111,1.9121,1.914,1.9146,1.914,1.9165,1.9166,1.9159,1.9158,1.9152,1.9158,1.916,1.916,1.916,0,1.8892,1.8912,1.8934,1.8963,1.8971,1.8982,1.9006,1.9021,1.9045,1.9056,1.9073,1.9088,1.9106,1.911,1.9136,1.9132,1.9143,1.9155,1.9155,1.9159,1.9163,1.9162,1.916,1.9162,1.9162,1.9162,1.9162,0,1.8876,1.8908,1.8926,1.8937,1.8972,1.898,1.8995,1.9019,1.9032,1.9053,1.9062,1.9085,1.9097,1.9115,1.9137,1.9138,1.9162,1.9167,1.9173,1.9172,1.9177,1.9176,1.9178,1.9183,1.9183,1.9183,1.9183,0,1.8874,1.8886,1.892,1.8931,1.8947,1.897,1.8985,1.9002,1.9024,1.9039,1.9058,1.9072,1.91,1.9118,1.9135,1.9155,1.916,1.9171,1.9175,1.917,1.9168,1.9178,1.9178,1.9183,1.9183,1.9183,1.9183,0,1.8858,1.8881,1.8902,1.8934,1.8943,1.8953,1.8981,1.8993,1.9011,1.9031,1.9037,1.9065,1.9087,1.9111,1.9141,1.9152,1.9173,1.9178,1.9165,1.9167,1.9172,1.9172,1.918,1.9184,1.9185,1.9185,1.9185,0,1.8855,1.8866,1.89,1.8912,1.8927,1.8945,1.896,1.8984,1.8998,1.9027,1.9037,1.9061,1.9081,1.9117,1.914,1.9164,1.9171,1.9173,1.9175,1.917,1.9173,1.9173,1.9175,1.9172,1.9172,1.9172,1.9172,0,1.8849,1.886,1.888,1.8904,1.8921,1.8941,1.8962,1.8971,1.8999,1.9015,1.9038,1.9055,1.9087,1.9111,1.9138,1.9155,1.9169,1.9171,1.9174,1.9168,1.9161,1.9167,1.9164,1.9171,1.9171,1.9171,1.9171,1.9171,1.8841,1.8852,1.8878,1.89,1.8919,1.8939,1.8952,1.8973,1.8993,1.9021,1.9034,1.9059,1.9085,1.9123,1.914,1.916,1.9164,1.9167,1.9168,1.9169,1.9169,1.9157,1.9165,1.9165,1.9165,1.9165,1.9165,0,1.8836,1.8854,1.8874,1.8904,1.8922,1.8934,1.8958,1.8973,1.8994,1.9017,1.9038,1.9066,1.9091,1.9117,1.9144,1.9155,1.9162,1.9161,1.9161,1.9165,1.9163,1.9158,1.9155,1.9155,1.9155,1.9155,1.9155,1.9155,1.8836,1.8857,1.8871,1.8902,1.8921,1.8945,1.8958,1.8977,1.8996,1.9027,1.9048,1.9065,1.9091,1.912,1.9143,1.9151,1.916,1.9157,1.9167,1.9164,1.9165,1.9165,1.9162,1.9159,1.9159,1.9168,1.9168,1.9168]},{"header":{"parameterUnit":"m.s-1","parameterCategory":1,"la1":30.2991,"la2":30.254,"lo1":-89.0895,"lo2":-89.0444,"dy":0.0017,"dx":0.0017,"nx":28,"ny":28,"refTime":"2025-01-18T09:00:00:Z","depth":0,"parameterNumber":3,"parameterNumberName":"V-component_of_WINDS"},"data":[0,0,0,0,0,0,0,0,0,0,0,0,0,0,0,0,0,0,0,0,0,0,0,0,0,0,0,0,0,0,0,0,0,0,0,0,0,0,0,0,0,0,0,0,0,0,0,0,0,0,0,0,0,0,0,0,0,0,1.9605,1.9606,0,1.9708,1.9709,1.9711,1.9733,1.9732,1.9731,1.9731,1.9834,1.9837,1.984,0,0,0,0,0,0,0,0,0,0,0,0,0,1.9426,1.943,1.9605,1.9606,1.9608,1.9708,1.9709,1.9711,1.9733,1.9732,1.9731,1.973,1.9832,1.9836,1.9841,0,0,0,0,0,0,0,0,0,0,0,0,0,1.9514,1.9431,1.9605,1.9631,1.9634,1.9708,1.9709,1.9711,1.9733,1.9732,1.9731,1.973,1.9831,1.9836,1.9841,1.9895,0,0,1.9857,1.9859,0,0,0,0,0,0,0,0,1.9509,1.9521,1.9626,1.9629,1.9633,1.9707,1.9684,1.9773,1.9734,1.9696,1.9731,1.9729,1.9792,1.98,1.9822,1.99,1.9904,1.9857,1.986,1.9863,1.9864,0,0,0,0,0,0,0,1.9503,1.9516,1.9646,1.9627,1.9632,1.9637,1.9648,1.9701,1.9749,1.9699,1.9701,1.9713,1.9794,1.9817,1.9825,1.9906,1.9857,1.9862,1.9865,1.9867,2.0035,2.0037,0,0,0,0,0,0,1.9493,1.9511,1.9643,1.9649,1.9567,1.9641,1.9654,1.9684,1.9748,1.9757,1.9714,1.9713,1.9809,1.9819,1.9828,1.9898,1.9863,1.9867,1.987,2.0034,2.0036,2.0037,0,0,0,0,0,0,1.9489,1.9504,1.9638,1.9581,1.9598,1.9646,1.9679,1.9687,1.971,1.9759,1.9768,1.9729,1.9808,1.9821,1.9879,1.9901,1.987,1.9874,2.0032,2.0035,2.0037,2.0035,0,0,0,0,0,0,1.9483,1.9503,1.9524,1.9581,1.9601,1.9688,1.9681,1.969,1.9719,1.972,1.9776,1.9784,1.9808,1.9871,1.9884,1.9908,1.9878,2.0031,2.0033,2.0036,2.0033,2.0037,2.004,0,0,0,0,0,1.9477,1.9518,1.9525,1.954,1.9629,1.9689,1.97,1.9729,1.9721,1.9743,1.9775,1.9782,1.9897,1.9877,1.9892,1.9917,2.0029,2.0033,2.0036,2.0032,2.0036,2.004,0,0,0,0,0,0,1.946,1.9526,1.9534,1.9595,1.9636,1.9693,1.9721,1.9732,1.9776,1.9774,1.9807,1.9819,1.9876,1.9902,1.9879,1.9974,1.9963,1.9969,1.9955,1.9959,1.9962,1.9955,1.9883,0,0,0,0,0,1.9464,1.9508,1.9563,1.9611,1.9632,1.9673,1.97,1.9718,1.9762,1.978,1.9816,1.9858,1.9903,1.9932,1.9977,2.0037,2.005,2.0062,2.0065,2.0068,2.0073,2.0109,2.0115,2.0048,2.0048,2.0048,0,0,1.9472,1.9513,1.9539,1.9609,1.9643,1.9689,1.9687,1.9734,1.9768,1.9786,1.9844,1.9872,1.9921,1.9981,2.0009,2.0005,2.0095,2.0072,2.0073,2.0077,2.0113,2.0119,2.0125,2.005,2.0049,2.0049,0,0,1.9509,1.9544,1.959,1.9625,1.9677,1.9705,1.9716,1.9771,1.9791,1.985,1.9865,1.9905,1.9982,2.0018,2.0045,2.0098,2.0107,2.0111,2.0129,2.0163,2.0169,2.0174,2.0194,2.0201,2.0116,2.0116,2.0116,0,1.9512,1.9581,1.9611,1.9659,1.969,1.971,1.9757,1.9789,1.9853,1.9874,1.9868,1.9967,2.0001,2.0071,2.0084,2.0105,2.0119,2.0106,2.0166,2.0171,2.0176,2.0196,2.0203,2.0117,2.0117,2.0117,2.0117,0,1.9582,1.963,1.966,1.9724,1.9758,1.9805,1.9842,1.9873,1.9889,1.9917,1.9977,2.0019,2.0074,2.0091,2.0106,2.0164,2.016,2.0159,2.0149,2.0182,2.0202,2.0209,2.0117,2.0117,2.0117,2.0117,0,0,1.9611,1.9693,1.9704,1.9734,1.9794,1.9832,1.988,1.9934,1.9961,2.0005,2.0046,2.0112,2.0114,2.0145,2.0164,2.0194,2.0236,2.0191,2.0192,2.0199,2.0304,2.0305,2.0313,2.0242,2.0244,2.0245,2.03,0,1.9657,1.9745,1.9775,1.9847,1.9893,1.9913,1.9955,1.9997,2.0025,2.0067,2.0097,2.0144,2.0141,2.0161,2.0191,2.0224,2.0258,2.0221,2.0282,2.0284,2.027,2.0323,2.0324,2.0374,2.0308,2.0309,2.031,0,1.9722,1.977,1.9847,1.9905,1.9925,1.9962,2.0016,2.0056,2.0104,2.0122,2.0158,2.0176,2.0227,2.0213,2.0285,2.0259,2.0286,2.0306,2.0308,2.0316,2.03,2.0333,2.039,2.0398,2.0322,2.0321,2.032,0,1.9738,1.982,1.9878,1.9903,1.9971,1.9997,2.0026,2.0073,2.0105,2.0152,2.0173,2.0224,2.0252,2.0291,2.0322,2.0309,2.0392,2.038,2.0409,2.0408,2.0426,2.0425,2.049,2.0441,2.0441,2.0441,2.0441,0,1.9787,1.9834,1.9887,1.9922,1.9976,2.001,2.0062,2.0092,2.0134,2.0176,2.0196,2.0235,2.0273,2.0317,2.0341,2.0398,2.041,2.0427,2.0433,2.0426,2.0424,2.0444,2.0442,2.0443,2.0442,2.0442,2.0442,0,1.9814,1.9851,1.9916,1.9975,1.9991,2.0028,2.0079,2.0115,2.0144,2.0197,2.0211,2.0257,2.031,2.0345,2.0411,2.0428,2.049,2.0495,2.0475,2.0478,2.0506,2.0503,2.0587,2.0601,2.0541,2.0542,2.0542,0,1.9843,1.988,1.9945,1.9975,2.0005,2.0053,2.0086,2.0121,2.0155,2.0214,2.0242,2.0297,2.0343,2.0426,2.0465,2.0517,2.0524,2.055,2.0532,2.0524,2.0526,2.0524,2.0529,2.0553,2.0553,2.0554,2.0554,0,1.9892,1.9909,1.9957,2.0012,2.0051,2.0096,2.014,2.0163,2.0206,2.0243,2.0298,2.0334,2.0404,2.0458,2.0514,2.0544,2.0556,2.0559,2.0569,2.0563,2.0551,2.056,2.0484,2.0557,2.0557,2.0557,2.0557,2.0556,1.9922,1.9957,2.0008,2.0062,2.0099,2.0141,2.0178,2.0213,2.026,2.0321,2.0338,2.0396,2.0445,2.0522,2.0553,2.0598,2.0596,2.0609,2.0613,2.0616,2.0618,2.0542,2.0608,2.0608,2.0608,2.0608,2.0608,0,1.9973,2.0008,2.0057,2.0119,2.0162,2.0171,2.0221,2.0256,2.0307,2.0352,2.0398,2.0462,2.0516,2.0559,2.0614,2.0643,2.065,2.0656,2.0655,2.0662,2.0616,2.0603,2.065,2.065,2.065,2.065,2.065,2.065,2.0005,2.0065,2.0089,2.0169,2.0203,2.0262,2.029,2.0329,2.0365,2.0437,2.0482,2.0511,2.0556,2.0615,2.0664,2.0676,2.0696,2.0701,2.0714,2.067,2.0665,2.0661,2.0649,2.0705,2.0705,2.0757,2.0757,2.0758]}]]